Location: ????????
(54.9045°N, 39.1041°E)
Time: 07:20:56
(UTC+00:00)

H-2A R/B - Visible Passes

Search period start: 13 July 2024 00:00
Search period end: 23 July 2024 00:00
Orbit: 731 x 833 km, 98.2° (Epoch: 12 July)

Date Brightness Start Highest point End Pass type
(mag) Time Alt. Az. Time Alt. Az. Time Alt. Az.
13 Jul 4.8 00:06:57 10° ENE 00:08:43 12° E 00:10:30 10° ESE visible
16 Jul 4.7 00:10:30 10° ENE 00:12:39 13° E 00:14:47 10° ESE visible
19 Jul 4.6 00:14:07 10° NE 00:16:34 14° E 00:19:00 10° ESE visible
22 Jul 4.6 00:17:45 10° NE 00:20:29 15° E 00:23:11 10° ESE visible
